| time (UTC) | temp C | wind direction | speed KPH | gust KPH | rain 1hr cm | rain 24hr cm | rain mn cm | humidity % | barometer mb |
| 20260506094607 | 8 | 22 | 14.5 | 25.7 | 0.00 | 0.00 | 0.00 | 74 | 1014.9 |
| 20260506094107 | 9 | 28 | 16.1 | 24.1 | 0.00 | 0.00 | 0.00 | 71 | 1014.8 |
| 20260506093606 | 9 | 27 | 11.3 | 27.4 | 0.00 | 0.00 | 0.00 | 71 | 1014.9 |
| 20260506093106 | 10 | 51 | 14.5 | 27.4 | 0.00 | 0.00 | 0.00 | 71 | 1014.8 |
| 20260506091606 | 10 | 27 | 11.3 | 24.1 | 0.00 | 0.00 | 0.00 | 66 | 1014.6 |
| 20260506091106 | 10 | 55 | 14.5 | 24.1 | 0.00 | 0.00 | 0.00 | 68 | 1014.6 |
| 20260506090606 | 10 | 40 | 11.3 | 27.4 | 0.00 | 0.00 | 0.00 | 70 | 1014.6 |
| 20260506090107 | 10 | 21 | 16.1 | 27.4 | 0.00 | 0.00 | 0.00 | 70 | 1014.6 |
| 20260506084606 | 10 | 41 | 12.9 | 24.1 | 0.00 | 0.00 | 0.00 | 67 | 1014.5 |
| 20260506084106 | 10 | 37 | 12.9 | 24.1 | 0.00 | 0.00 | 0.00 | 67 | 1014.4 |
| 20260506083606 | 10 | 55 | 9.7 | 27.4 | 0.00 | 0.00 | 0.00 | 67 | 1014.4 |
| 20260506083108 | 10 | 77 | 14.5 | 27.4 | 0.00 | 0.00 | 0.00 | 66 | 1014.4 |
| 20260506081606 | 9 | 38 | 11.3 | 22.5 | 0.00 | 0.00 | 0.00 | 69 | 1014.5 |
| 20260506081107 | 9 | 69 | 8.0 | 22.5 | 0.00 | 0.00 | 0.00 | 70 | 1014.5 |
| 20260506080107 | 10 | 59 | 12.9 | 25.7 | 0.00 | 0.00 | 0.00 | 68 | 1014.5 |
| 20260506073107 | 9 | 41 | 8.0 | 24.1 | 0.00 | 0.00 | 0.00 | 71 | 1014.3 |
| 20260506071606 | 8 | 36 | 9.7 | 22.5 | 0.00 | 0.00 | 0.00 | 77 | 1014.2 |
| 20260506070607 | 7 | 18 | 9.7 | 19.3 | 0.00 | 0.00 | 0.00 | 82 | 1014.2 |
| 20260506070106 | 7 | 349 | 4.8 | 12.9 | 0.00 | 0.00 | 0.00 | 82 | 1014.2 |
| 20260506061606 | 7 | 333 | 4.8 | 14.5 | 0.00 | 0.00 | 0.00 | 82 | 1013.9 |
| 20260506061106 | 7 | 3 | 8.0 | 14.5 | 0.00 | 0.00 | 0.00 | 82 | 1013.9 |
| 20260506060606 | 7 | 2 | 6.4 | 14.5 | 0.00 | 0.00 | 0.00 | 83 | 1013.9 |
| 20260506051106 | 6 | 353 | 4.8 | 12.9 | 0.00 | 0.00 | 0.00 | 85 | 1013.8 |
| 20260506050106 | 6 | 349 | 8.0 | 16.1 | 0.00 | 0.00 | 0.00 | 85 | 1013.8 |
| 20260506044607 | 6 | 337 | 8.0 | 16.1 | 0.00 | 0.00 | 0.00 | 85 | 1013.8 |
| 20260506044106 | 6 | 343 | 9.7 | 14.5 | 0.00 | 0.00 | 0.00 | 85 | 1013.7 |
| 20260506043608 | 6 | 348 | 8.0 | 14.5 | 0.00 | 0.00 | 0.00 | 85 | 1013.7 |
| 20260506043106 | 6 | 354 | 8.0 | 14.5 | 0.00 | 0.00 | 0.00 | 85 | 1013.7 |
| 20260506041107 | 6 | 346 | 8.0 | 12.9 | 0.00 | 0.00 | 0.00 | 86 | 1013.8 |
| 20260506040607 | 6 | 353 | 4.8 | 12.9 | 0.00 | 0.00 | 0.00 | 86 | 1013.8 |
| 20260506034606 | 5 | 333 | 1.6 | 8.0 | 0.00 | 0.00 | 0.00 | 87 | 1013.9 |
| 20260506034106 | 5 | 340 | 4.8 | 9.7 | 0.00 | 0.00 | 0.00 | 87 | 1013.8 |
| 20260506033606 | 5 | 332 | 3.2 | 9.7 | 0.00 | 0.00 | 0.00 | 87 | 1013.9 |
| 20260506033106 | 5 | 329 | 3.2 | 9.7 | 0.00 | 0.00 | 0.00 | 86 | 1013.9 |
| 20260506031606 | 5 | 347 | 4.8 | 14.5 | 0.00 | 0.00 | 0.00 | 86 | 1014.0 |
| 20260506031106 | 5 | 1 | 6.4 | 14.5 | 0.00 | 0.00 | 0.00 | 85 | 1013.9 |
| 20260506030606 | 5 | 351 | 8.0 | 14.5 | 0.00 | 0.00 | 0.00 | 85 | 1013.8 |
| 20260506030106 | 5 | 342 | 9.7 | 14.5 | 0.00 | 0.00 | 0.00 | 85 | 1013.8 |
| 20260506024607 | 5 | 335 | 6.4 | 16.1 | 0.00 | 0.00 | 0.00 | 85 | 1013.8 |
| 20260506023607 | 5 | 330 | 4.8 | 12.9 | 0.00 | 0.00 | 0.00 | 85 | 1013.9 |
| 20260506023107 | 5 | 334 | 6.4 | 12.9 | 0.00 | 0.00 | 0.00 | 85 | 1013.9 |
| 20260506021606 | 5 | 340 | 4.8 | 12.9 | 0.00 | 0.00 | 0.00 | 85 | 1014.1 |
| 20260506020107 | 5 | 310 | 4.8 | 11.3 | 0.00 | 0.00 | 0.00 | 86 | 1014.1 |
| 20260506014106 | 5 | 325 | 3.2 | 12.9 | 0.00 | 0.00 | 0.00 | 86 | 1014.1 |
| 20260506013106 | 5 | 318 | 4.8 | 12.9 | 0.00 | 0.00 | 0.00 | 87 | 1014.1 |
| 20260506011605 | 5 | 318 | 1.6 | 11.3 | 0.00 | 0.00 | 0.00 | 87 | 1014.1 |
| 20260506011106 | 5 | 305 | 4.8 | 11.3 | 0.00 | 0.00 | 0.00 | 87 | 1014.2 |
| 20260506010606 | 5 | 288 | 3.2 | 11.3 | 0.00 | 0.00 | 0.00 | 86 | 1014.1 |
| 20260506010107 | 5 | 328 | 3.2 | 8.0 | 0.00 | 0.00 | 0.00 | 87 | 1014.1 |
| 20260506004606 | 5 | 322 | 4.8 | 14.5 | 0.00 | 0.00 | 0.00 | 86 | 1014.2 |
| 20260506003105 | 6 | 309 | 3.2 | 8.0 | 0.00 | 0.00 | 0.00 | 86 | 1014.3 |
| 20260506001606 | 6 | 296 | 3.2 | 9.7 | 0.00 | 0.00 | 0.00 | 86 | 1014.4 |
| 20260506000607 | 6 | 314 | 4.8 | 9.7 | 0.00 | 0.00 | 0.00 | 86 | 1014.3 |
| 20260506000106 | 6 | 332 | 4.8 | 9.7 | 0.00 | 0.00 | 0.00 | 86 | 1014.3 |
| 20260505234606 | 6 | 334 | 6.4 | 12.9 | 0.00 | 0.00 | 0.00 | 85 | 1014.4 |
| 20260505234106 | 6 | 328 | 3.2 | 9.7 | 0.00 | 0.00 | 0.00 | 85 | 1014.5 |
| 20260505233606 | 6 | 336 | 4.8 | 11.3 | 0.00 | 0.00 | 0.00 | 85 | 1014.5 |
| 20260505233106 | 6 | 323 | 3.2 | 11.3 | 0.00 | 0.00 | 0.00 | 85 | 1014.5 |
| 20260505231607 | 6 | 343 | 4.8 | 12.9 | 0.00 | 0.00 | 0.00 | 85 | 1014.6 |
| 20260505231106 | 6 | 342 | 4.8 | 12.9 | 0.00 | 0.00 | 0.00 | 84 | 1014.5 |
| 20260505230606 | 6 | 338 | 8.0 | 12.9 | 0.00 | 0.00 | 0.00 | 84 | 1014.5 |
| 20260505230106 | 6 | 333 | 8.0 | 14.5 | 0.00 | 0.00 | 0.00 | 84 | 1014.5 |
| 20260505223607 | 7 | 350 | 8.0 | 14.5 | 0.00 | 0.00 | 0.00 | 83 | 1014.6 |
| 20260505223106 | 7 | 355 | 8.0 | 14.5 | 0.00 | 0.00 | 0.00 | 83 | 1014.6 |
| 20260505221606 | 7 | 357 | 9.7 | 16.1 | 0.00 | 0.00 | 0.00 | 83 | 1014.7 |
| 20260505221106 | 7 | 357 | 9.7 | 16.1 | 0.00 | 0.00 | 0.00 | 82 | 1014.7 |
| 20260505220606 | 7 | 358 | 9.7 | 16.1 | 0.00 | 0.00 | 0.00 | 82 | 1014.8 |
| 20260505220106 | 7 | 353 | 6.4 | 19.3 | 0.00 | 0.00 | 0.00 | 82 | 1014.8 |
| 20260505214606 | 7 | 3 | 12.9 | 19.3 | 0.00 | 0.00 | 0.00 | 81 | 1014.7 |
| 20260505214107 | 7 | 354 | 9.7 | 19.3 | 0.00 | 0.00 | 0.00 | 81 | 1014.7 |
| 20260505213606 | 7 | 350 | 11.3 | 20.9 | 0.00 | 0.00 | 0.00 | 80 | 1014.7 |
| 20260505213106 | 7 | 0 | 12.9 | 20.9 | 0.00 | 0.00 | 0.00 | 80 | 1014.7 |
| 20260505211606 | 8 | 348 | 11.3 | 20.9 | 0.00 | 0.00 | 0.00 | 79 | 1014.6 |
| 20260505211107 | 8 | 350 | 11.3 | 20.9 | 0.00 | 0.00 | 0.00 | 79 | 1014.7 |
| 20260505210606 | 8 | 353 | 11.3 | 24.1 | 0.00 | 0.00 | 0.00 | 78 | 1014.6 |
| 20260505204607 | 8 | 4 | 11.3 | 24.1 | 0.00 | 0.00 | 0.00 | 77 | 1014.6 |
| 20260505204106 | 8 | 354 | 16.1 | 24.1 | 0.00 | 0.00 | 0.00 | 77 | 1014.5 |
| 20260505203106 | 8 | 357 | 11.3 | 24.1 | 0.00 | 0.00 | 0.00 | 76 | 1014.5 |
| 20260505201606 | 8 | 348 | 12.9 | 25.7 | 0.00 | 0.00 | 0.00 | 75 | 1014.4 |
| 20260505201106 | 8 | 3 | 17.7 | 32.2 | 0.00 | 0.00 | 0.00 | 75 | 1014.4 |
| 20260505200606 | 8 | 9 | 20.9 | 32.2 | 0.00 | 0.00 | 0.00 | 75 | 1014.4 |
| 20260505200106 | 8 | 6 | 17.7 | 29.0 | 0.00 | 0.00 | 0.00 | 75 | 1014.4 |
| 20260505194606 | 9 | 6 | 19.3 | 25.7 | 0.00 | 0.00 | 0.00 | 74 | 1014.3 |
| 20260505193606 | 9 | 343 | 16.1 | 27.4 | 0.00 | 0.00 | 0.00 | 74 | 1014.4 |
| 20260505193106 | 9 | 348 | 19.3 | 29.0 | 0.00 | 0.00 | 0.00 | 73 | 1014.3 |
| 20260505191105 | 9 | 4 | 11.3 | 32.2 | 0.00 | 0.00 | 0.00 | 74 | 1014.2 |
| 20260505190607 | 9 | 2 | 16.1 | 32.2 | 0.00 | 0.00 | 0.00 | 74 | 1014.2 |
| 20260505190107 | 10 | 0 | 16.1 | 32.2 | 0.00 | 0.00 | 0.00 | 74 | 1014.1 |
| 20260505184106 | 10 | 346 | 14.5 | 27.4 | 0.00 | 0.00 | 0.00 | 75 | 1014.0 |
| 20260505183606 | 10 | 347 | 11.3 | 27.4 | 0.00 | 0.00 | 0.00 | 75 | 1014.0 |
| 20260505183106 | 10 | 12 | 12.9 | 32.2 | 0.00 | 0.00 | 0.00 | 75 | 1014.0 |
| 20260505181606 | 10 | 358 | 14.5 | 32.2 | 0.00 | 0.00 | 0.00 | 74 | 1013.9 |
| 20260505181105 | 10 | 29 | 12.9 | 32.2 | 0.00 | 0.00 | 0.00 | 74 | 1013.8 |
| 20260505180606 | 10 | 8 | 17.7 | 32.2 | 0.00 | 0.00 | 0.00 | 73 | 1013.8 |
| 20260505180105 | 10 | 353 | 16.1 | 32.2 | 0.00 | 0.00 | 0.00 | 72 | 1013.9 |
| 20260505174106 | 11 | 9 | 16.1 | 25.7 | 0.00 | 0.00 | 0.00 | 72 | 1013.7 |
| 20260505173106 | 11 | 9 | 19.3 | 29.0 | 0.00 | 0.00 | 0.00 | 70 | 1013.7 |
| 20260505171606 | 11 | 7 | 11.3 | 19.3 | 0.00 | 0.00 | 0.00 | 68 | 1013.6 |
| 20260505171106 | 11 | 45 | 8.0 | 24.1 | 0.00 | 0.00 | 0.00 | 68 | 1013.7 |
| 20260505170107 | 11 | 350 | 6.4 | 19.3 | 0.00 | 0.00 | 0.00 | 69 | 1013.8 |
| 20260505164606 | 11 | 35 | 12.9 | 22.5 | 0.00 | 0.00 | 0.00 | 70 | 1013.8 |
| 20260505164105 | 11 | 21 | 11.3 | 22.5 | 0.00 | 0.00 | 0.00 | 69 | 1013.8 |
| 20260505163107 | 11 | 13 | 8.0 | 19.3 | 0.00 | 0.00 | 0.00 | 71 | 1013.7 |
| 20260505161606 | 11 | 17 | 8.0 | 22.5 | 0.00 | 0.00 | 0.00 | 73 | 1013.6 |
| 20260505161106 | 11 | 2 | 14.5 | 22.5 | 0.00 | 0.00 | 0.00 | 73 | 1013.5 |
| 20260505160606 | 11 | 7 | 12.9 | 24.1 | 0.00 | 0.00 | 0.00 | 73 | 1013.5 |
| 20260505160107 | 11 | 35 | 8.0 | 24.1 | 0.00 | 0.00 | 0.00 | 73 | 1013.5 |
| 20260505153106 | 11 | 10 | 12.9 | 32.2 | 0.00 | 0.00 | 0.00 | 73 | 1013.4 |
| 20260505151606 | 11 | 357 | 16.1 | 29.0 | 0.00 | 0.00 | 0.00 | 73 | 1013.5 |
| 20260505150605 | 12 | 14 | 9.7 | 22.5 | 0.00 | 0.00 | 0.00 | 74 | 1013.3 |
| 20260505150106 | 12 | 4 | 11.3 | 25.7 | 0.00 | 0.00 | 0.00 | 74 | 1013.3 |
| 20260505140106 | 12 | 353 | 16.1 | 24.1 | 0.00 | 0.00 | 0.00 | 72 | 1013.1 |
| 20260505130107 | 13 | 49 | 4.8 | 16.1 | 0.00 | 0.00 | 0.00 | 68 | 1012.7 |
| 20260505124105 | 13 | 50 | 9.7 | 19.3 | 0.00 | 0.00 | 0.00 | 67 | 1012.6 |
| 20260505123606 | 13 | 22 | 8.0 | 19.3 | 0.00 | 0.00 | 0.00 | 69 | 1012.6 |
| 20260505123107 | 13 | 8 | 9.7 | 24.1 | 0.00 | 0.00 | 0.00 | 69 | 1012.6 |
| 20260505121606 | 15 | 92 | 8.0 | 14.5 | 0.00 | 0.00 | 0.00 | 63 | 1012.5 |
| 20260505121106 | 15 | 0 | 6.4 | 14.5 | 0.00 | 0.00 | 0.00 | 61 | 1012.5 |
| 20260505120106 | 15 | 333 | 3.2 | 16.1 | 0.00 | 0.00 | 0.00 | 54 | 1012.6 |
| 20260505114606 | 16 | 27 | 4.8 | 12.9 | 0.00 | 0.00 | 0.00 | 56 | 1012.4 |
| 20260505111607 | 14 | 284 | 3.2 | 12.9 | 0.00 | 0.00 | 0.00 | 59 | 1012.6 |
| 20260505111106 | 14 | 4 | 9.7 | 12.9 | 0.00 | 0.00 | 0.00 | 57 | 1012.7 |
| 20260505110605 | 15 | 345 | 4.8 | 12.9 | 0.00 | 0.00 | 0.00 | 57 | 1012.7 |
| 20260505110106 | 15 | 281 | 4.8 | 14.5 | 0.00 | 0.00 | 0.00 | 57 | 1012.7 |
| 20260505101606 | 13 | 333 | 3.2 | 14.5 | 0.00 | 0.00 | 0.00 | 60 | 1012.8 |
| 20260505100605 | 13 | 288 | 4.8 | 14.5 | 0.00 | 0.00 | 0.00 | 60 | 1012.8 |